Hourly Data Report for August 09, 2016

TORONTO CITY
ONTARIO

43°40'00.000" N
79°24'00.000" W
112.50 m
6158355
71508
XTO

Download Data

Hourly Data (August 2016)
Hourly Data Report for August 9, 2016
TIME
LST
Temp Definition
°C
Dew Point Definition
°C
Rel Hum Definition
%
Precip. Amount Definition
mm

Wind Dir Definition
10's deg

Wind Spd Definition
km/h
Visibility Definition
km
Stn Press Definition
kPa
Hmdx Definition


Wind Chill Definition


Weather Definition


00:00 20.4 10.5 53 0.0 LegendMM LegendMM   100.59     LegendNANA
01:00 20.1 8.4 47 0.0 LegendMM LegendMM   100.60     LegendNANA
02:00 20.9 13.7 64 0.0 LegendMM LegendMM   100.60     LegendNANA
03:00 20.1 12.4 61 0.0 LegendMM LegendMM   100.60     LegendNANA
04:00 19.5 14.8 74 0.0 LegendMM LegendMM   100.60     LegendNANA
05:00 19.4 14.3 73 0.0 LegendMM LegendMM   100.60     LegendNANA
06:00 20.0 15.1 74 0.0 LegendMM LegendMM   100.65     LegendNANA
07:00 21.5 16.4 73 0.0 LegendMM LegendMM   100.67 26   LegendNANA
08:00 24.0 15.0 57 0.0 LegendMM LegendMM   100.67 28   LegendNANA
09:00 25.6 15.3 53 0.0 LegendMM LegendMM   100.65 30   LegendNANA
10:00 26.9 16.5 53 0.0 LegendMM LegendMM   100.64 32   LegendNANA
11:00 27.8 16.7 51 0.0 LegendMM LegendMM   100.62 33   LegendNANA
12:00 29.5 15.3 42 0.0 LegendMM LegendMM   100.56 34   LegendNANA
13:00 31.0 13.2 34 0.0 LegendMM LegendMM   100.51 34   LegendNANA
14:00 29.1 16.2 46 0.0 LegendMM LegendMM   100.45 34   LegendNANA
15:00 28.1 15.7 47 0.0 LegendMM LegendMM   100.41 33   LegendNANA
16:00 28.1 15.5 46 0.0 LegendMM LegendMM   100.35 32   LegendNANA
17:00 27.6 14.4 45 0.0 LegendMM LegendMM   100.34 31   LegendNANA
18:00 26.7 13.2 43 0.0 LegendMM LegendMM   100.30 30   LegendNANA
19:00 26.4 14.0 46 0.0 LegendMM LegendMM   100.27 30   LegendNANA
20:00 25.7 16.4 57 0.0 LegendMM LegendMM   100.29 31   LegendNANA
21:00 25.5 17.2 60 0.0 LegendMM LegendMM   100.30 31   LegendNANA
22:00 25.3 17.9 64 0.0 LegendMM LegendMM   100.29 31   LegendNANA
23:00 24.9 18.4 67 0.0 LegendMM LegendMM   100.28 31   LegendNANA

Notes on Data Quality.

Legend

  • E = Estimated
  • M = Missing
  • NA = Not Available*
  • [empty] = Indicates an unobserved value
Date modified: